Deer Park, WA

9:56 AM PDT on May 21, 2018 (GMT -0700)
Deer Park

Weather History for KDEW - August, 2013

Change the Weather History Date:

Thursday, August 29, 2013

  Actual Average Record
Temperature  
Mean Temperature 68 °F 62 °F  
Max Temperature 82 °F 80 °F 99 °F (2017)
Min Temperature 54 °F 44 °F 31 °F (2010)
Degree Days  
Heating Degree Days 0 4  
Month to date heating degree days 15 67  
Since 1 June heating degree days 240 335  
Since 1 July heating degree days 38 135  
Cooling Degree Days 3 1  
Month to date cooling degree days 109 72  
Year to date cooling degree days 241 169  
Since 1 June cooling degree days 238 166  
Growing Degree Days 18 (Base 50)    
Moisture  
Dew Point 52 °F    
Average Humidity 61    
Maximum Humidity 86    
Minimum Humidity 35    
Precipitation  
Precipitation 0.00 in 0.03 in 0.35 in (2002)
Month to date precipitation 2.11 0.76  
Year to date precipitation 11.97 13.36  
Sea Level Pressure  
Sea Level Pressure 29.93 in    
Wind  
Wind Speed 3 mph (SSW)    
Max Wind Speed 20 mph    
Max Gust Speed 26 mph    
Visibility 10 miles    
Events      
T = Trace of Precipitation, MM = Missing Value Source: NWS Daily Summary

Daily Weather History Graph

Daily Weather History Graph

Search for Another Location

Airport or City:

Astronomy

Aug. 29, 2013 Rise Set
Actual Time 6:04 AM PDT 7:35 PM PDT
Civil Twilight 5:31 AM PDT 8:08 PM PDT
Nautical Twilight 4:52 AM PDT 8:47 PM PDT
Astronomical Twilight 4:09 AM PDT 9:30 PM PDT
Moon No Moon Rise 3:22 PM PDT (8/29)
Length of Visible Light 14h 36m
Length of Day
13h 31m
Last Quarter, 37% of the Moon is Illuminated
Aug 29
Last Quarter
Sep 5
New
Sep 12
First Quarter
Sep 19
Full
Sep 26
Last Quarter

Hourly Weather History & Observations

Time (PDT) Temp. Dew Point Humidity Pressure Visibility Wind Dir Wind Speed Gust Speed Precip Events Conditions
12:53 AM 55.0 °F 51.1 °F 86% 29.90 in 10.0 mi NNW 4.6 mph - N/A   Clear
1:53 AM 59.0 °F 51.1 °F 75% 29.88 in 10.0 mi North 5.8 mph - N/A   Clear
2:53 AM 59.0 °F 51.1 °F 75% 29.88 in 10.0 mi North 3.5 mph - N/A   Clear
3:53 AM 61.0 °F 51.1 °F 70% 29.87 in 10.0 mi Calm Calm - N/A   Clear
4:53 AM 60.1 °F 52.0 °F 75% 29.86 in 10.0 mi NNW 5.8 mph - N/A   Clear
5:53 AM 59.0 °F 51.1 °F 75% 29.87 in 10.0 mi NNW 3.5 mph - N/A   Clear
6:53 AM 62.1 °F 53.1 °F 72% 29.88 in 10.0 mi Calm Calm - N/A   Clear
7:53 AM 63.0 °F 54.0 °F 72% 29.89 in 10.0 mi Calm Calm - N/A   Clear
8:53 AM 64.0 °F 55.0 °F 73% 29.90 in 10.0 mi Calm Calm - N/A   Clear
9:53 AM 69.1 °F 54.0 °F 58% 29.90 in 10.0 mi Calm Calm - N/A   Clear
10:53 AM 72.0 °F 54.0 °F 53% 29.91 in 10.0 mi Calm Calm - N/A   Clear
11:53 AM 71.1 °F 54.0 °F 55% 29.92 in 10.0 mi ESE 3.5 mph - N/A   Clear
12:53 PM 72.0 °F 55.0 °F 55% 29.94 in 10.0 mi SSE 4.6 mph - N/A   Clear
1:53 PM 73.9 °F 55.9 °F 53% 29.94 in 10.0 mi SSE 6.9 mph - N/A   Clear
2:53 PM 75.0 °F 55.0 °F 50% 29.96 in 10.0 mi South 6.9 mph - N/A   Clear
3:53 PM 78.1 °F 53.1 °F 42% 29.93 in 10.0 mi SE 6.9 mph - N/A   Clear
4:53 PM 80.1 °F 52.0 °F 38% 29.93 in 10.0 mi SSE 9.2 mph - N/A   Scattered Clouds
5:25 PM 82.4 °F 48.2 °F 30% 29.97 in 10.0 mi SW 17.3 mph 26.5 mph N/A   Partly Cloudy
5:53 PM 81.0 °F 50.0 °F 34% 29.94 in 10.0 mi SSW 12.7 mph - N/A   Clear
6:53 PM 78.1 °F 51.1 °F 39% 29.95 in 10.0 mi WSW 8.1 mph - N/A   Clear
7:53 PM 71.1 °F 52.0 °F 51% 29.96 in 10.0 mi West 4.6 mph - N/A   Clear
8:53 PM 60.1 °F 51.1 °F 72% 29.99 in 10.0 mi Calm Calm - N/A   Clear
9:53 PM 59.0 °F 51.1 °F 75% 30.00 in 10.0 mi Calm Calm - N/A   Clear
10:53 PM 55.0 °F 48.9 °F 80% 30.02 in 10.0 mi Calm Calm - N/A   Clear
11:53 PM 55.9 °F 51.1 °F 84% 30.01 in 10.0 mi Calm Calm - N/A   Partly Cloudy